www.pogodaiklimat.ru
Время
и дата
16:55 29.12
17:55 29.12
18:55 29.12
19:55 29.12
20:55 29.12
21:55 29.12
22:55 29.12
23:55 29.12
00:55 30.12
01:55 30.12
02:55 30.12
03:55 30.12
04:55 30.12
05:55 30.12
06:55 30.12
07:55 30.12
08:55 30.12
09:55 30.12
10:55 30.12
11:55 30.12
12:55 30.12
13:55 30.12
14:55 30.12
15:55 30.12
16:55 30.12
17:55 30.12
18:55 30.12
19:55 30.12
20:55 30.12
21:55 30.12
22:55 30.12
23:55 30.12
00:55 31.12
01:55 31.12
02:55 31.12
03:55 31.12
04:55 31.12
05:55 31.12
06:55 31.12
07:55 31.12
08:55 31.12
09:55 31.12
10:55 31.12
11:55 31.12
12:55 31.12
13:55 31.12
14:55 31.12
15:55 31.12
Ветер
(напр.,м/с)
Видим. Явления Облачность Т
(С)
Тd
(С)
f
(%)
Тe
(С)
Тes
(С)
Комфортность P
(гПа)
Po
(гПа)
Тmin
(С)
Tmax
(С)
R
(мм)
R24
(мм)
S
(см)
З 4
{6}
16 км ясно +6.1 -11.7 27 +2 +2 1005.5 837.8 +6.1 +10.6
З 4
{5}
16 км ясно +5.0 -11.7 29 0 0 1006.1 838.3
штиль 0 16 км ясно +1.7 -12.2 35 +2 +2 1008.9 840.0
З 2 16 км ясно +2.2 -11.7 35 -2 -2 1008.8 840.3
З 3 16 км ясно +0.6 -11.1 41 -5 -5 1008.8 840.3
СЗ 1 16 км ясно -3.3 -12.2 50 -7 -7 1009.7 840.9
З 2 16 км ясно +0.6 -11.1 41 -4 -4 1008.3 840.6 -3.3 +6.1
З 2 16 км ясно 0.0 -11.7 41 -5 -5 1007.8 840.3
З 2 16 км ясно -2.2 -12.2 46 -7 -7 1007.9 840.0
ЮЗ 2 16 км ясно -2.8 -12.2 48 -9 -9 1007.9 840.0
З 4 16 км ясно 0.0 -11.7 41 -7 -7 1007.3 840.0
ЮЗ 2 16 км ясно -1.7 -12.2 45 -7 -7 1007.4 839.5
З 2 16 км ясно -3.3 -12.8 48 -9 -9 1008.1 839.5 -3.3 +1.1
З 3 16 км ясно 0.0 -11.7 41 -6 -6 1007.9 839.8
ЮЗ 2 16 км ясно -3.9 -12.8 50 -10 -10 1010.2 840.3
З 3 16 км ясно +0.6 -11.1 41 -5 -5 1009.6 840.6
ЮЗ 3 16 км ясно +3.3 -10.6 35 -1 -1 1009.4 840.6
ЮЗ 3 16 км ясно +4.4 -9.4 36 0 0 1009.7 840.3
ЮЗ 4
{6}
16 км ясно +8.3 -8.9 29 +4 +5 1007.5 840.0 -3.9 +8.3
ЮЗ 4
{6}
16 км ясно +10.6 -10.0 22 +8 +9 1006.1 839.2
ЮЗ 4
{7}
16 км ясно +12.2 -10.6 19 +10 +11 1004.9 838.1
ЮЗ 4
{7}
16 км ясно +12.2 -11.7 18 +9 +10 1004.1 837.2
ЮЗ 4
{6}
16 км ясно +12.2 -11.7 18 +10 +10 1004.1 837.5
ЮЗ 3
{5}
16 км ясно +11.1 -11.7 19 +9 +9 1004.7 837.8
З 1 16 км ясно +7.2 -11.7 25 +5 +6 1005.7 837.8 +7.2 +12.8
штиль 0 16 км ясно +2.8 -12.8 31 +3 +3 1006.3 838.1
З 2 16 км ясно +5.0 -11.1 30 +2 +2 1007.0 838.3
ЮЗ 3
{5}
16 км ясно +5.6 -9.4 33 +2 +2 1005.9 838.3
З 4
{6}
16 км ясно +5.0 -9.4 34 0 0 1005.2 838.1
З 3
{5}
16 км ясно +4.4 -8.3 39 0 0 1004.6 837.5
ЮЗ 4
{7}
16 км ясно +5.0 -7.2 41 -1 -1 1002.6 836.7 +2.8 +7.2
ЮЗ 4
{7}
16 км ясно +4.4 -7.8 41 -1 -1 1002.2 836.7
З 5
{8}
16 км ясно +3.9 -7.8 42 -2 -2 1001.4 836.1
ЮЗ 3
{6}
16 км ясно +3.3 -7.2 46 -2 -2 1002.0 836.7
ЮЗ 4
{7}
16 км ясно +3.3 -7.2 46 -3 -3 1001.2 835.8
ЮЗ 5
{8}
16 км ясно +2.8 -7.8 46 -4 -4 1000.6 835.2
ЮЗ 4
{7}
16 км ясно +2.2 -7.8 48 -4 -4 1001.3 835.0 +1.7 +5.6
ЮЗ 4
{6}
16 км ясно +1.7 -7.8 49 -5 -5 1003.4 835.8
ЮЗ 4
{5}
16 км ясно +1.1 -8.3 49 -5 -5 1003.1 836.1
ЮЗ 4
{7}
16 км ясно +2.2 -7.2 50 -4 -4 1002.7 835.8
ЮЗ 4
{8}
16 км ясно +4.4 -7.8 41 -1 -1 1002.7 836.1
ЮЗ 5
{8}
16 км ясно +7.2 -7.2 35 +2 +2 1002.5 836.4
ЮЗ 5
{8}
16 км ясно +9.4 -6.7 31 +5 +5 1001.2 835.8 +1.1 +9.4
ЮЗ 5
{8}
16 км ясно +10.0 -6.7 30 +6 +6 1000.2 835.0
ЮЗ 4
{7}
16 км ясно +10.0 -6.1 32 +6 +7 999.2 834.1
ЮЗ 5
{8}
16 км ясно +9.4 -5.6 34 +5 +5 997.9 833.0
ЮЗ 4
{8}
16 км ясно +9.4 -3.9 39 +5 +6 998.0 833.0
ЮЗ 4
{6}
16 км ясно +8.3 -3.3 44 +4 +4 998.4 833.0
Местоположение метеостанции Clayton Municipal Airpark: широта 36.4483 долгота -103.1531 высота над уровнем моря 1513 м.
В архиве по умолчанию представлена погода в Клейтоне за последние 1-2 суток. Обновление информации о фактической погоде в базе происходит ежечасно! Архивные данные за месяц целиком и за предыдущие месяцы Вы можете получить, выбрав интересующий диапазон дат из раскрывающегося списка и нажав кнопку "Ввод!".
Внимание! Архив погоды МЕТАР в базе сайта по станциям, не включенным в климатический монитор, хранится не более 60 дней. Нет смысла пытаться выбрать более раннюю дату.
*Определитесь, кто Вы:
Внимание! Время в таблицах - местное (без учета летнего времени). Для получения всемирного времени необходимо вычесть поправку, которая равна -7 ч.
Смотрите также архив погоды в соседних городах и на ближайших метеорологических станциях:
Партнеры нашего сайта:      
Пояснения к столбцам:
  • Ветер - указаны скорость ветра в м/с - средняя за 10 мин, порывы в срок и между сроками (в фигурных скобках) и направление, откуда дует ветер: С - северный,
  • СВ - северо-восточный, В - восточный, ЮВ - юго-восточный, Ю - южный, ЮЗ - юго-западный, З - западный, СЗ - северо-западный.
  • Видимость - горизонтальная дальность видимости в метрах или километрах. При видимости от 1 до 10 км при отсутствии осадков обычно наблюдается дымка, при ухудшении видимости до 1 км и менее - туман. В сухую погоду видимость может ухудшаться дымом, пылью или мглою.
  • Явления - указаны атмосферные явления, наблюдавшиеся в срок или в последний час перед сроком; фигурными скобками обозначены явления, наблюдавшиеся между сроками (за 1-3 часа до срока); квадратными скобками обозначены град или гололедные отложения с указанием их диаметра в мм.
  • Облачность - указаны через наклонную черту общая и нижняя облачность в баллах и высота нижней границы облаков в метрах; квадратными скобками обозначены формы облаков: Ci - перистые, Cs - перисто-слоистые, Cc - перисто-кучевые, Ac - высококучевые, As - высокослоистые, Sc - слоисто-кучевые, Ns - слоисто-дождевые, Cu - кучевые, Cb - кучево-дождевые. Подробнее классификацию облаков см. в Атласе облаков (PDF).
  • T - Температура воздуха - температура, измеренная на высоте 2 м над землей.
  • Td - Температура точки росы - температура, при понижении до которой содержащийся в воздухе водяной пар достигнет насыщения.
  • f - Относительная влажность воздуха - влажноcть воздуха, измеренная на высоте 2 м над землей.
  • Te - Эффективная температура - температура, которую ощущает одетый по сезону человек в тени. Характеристика душности погоды. При расчете учитывается влияние влажности воздуха и скорости ветра на теплоощущения человека.
  • Tes - Эффективная температура на солнце - температура, которую ощущает человек, с поправкой на солнечный нагрев. Характеристика знойности погоды. Зависит от высоты солнца над горизонтом, облачности и скорости ветра. Ночью, в пасмурную погоду, а также при ветре 12 м/с и более поправка равна нулю.
  • P - Атмосферное давление - приведенное к уровню моря атмосферное давление.
  • Po - Атмосферное давление - измеренное на уровне метеостанции атмосферное давление.
  • Tmin - Минимальная температура - минимум температуры воздуха на высоте 2 м над землей.
  • Tmax - Максимальная температура - максимум температуры воздуха на высоте 2 м над землей.
  • R - Количество осадков - Количество выпавших осадков за период времени, мм. При наведении курсора мыши на число - период времени, за который выпало указанное количество осадков.
  • R24 - Количество осадков - Количество выпавших осадков за 24 часа, мм.
  • S - Снежный покров - Высота снежного покрова, см. При наведении курсора мыши на число - состояние снежного покрова и степень покрытия местности в баллах.